Weather History for KSZL - November, 2013

Change the Weather History Date:

Saturday, November 16, 2013

  Actual Average Record
Temperature  
Mean Temperature 58 °F -  
Max Temperature 67 °F 53 °F 75 °F (2001)
Min Temperature 50 °F 35 °F 17 °F (1997)
Degree Days  
Heating Degree Days 6    
Growing Degree Days 8 (Base 50)    
Moisture  
Dew Point 56 °F    
Average Humidity 83    
Maximum Humidity 94    
Minimum Humidity 71    
Precipitation  
Precipitation 0.07 in - - ()
Sea Level Pressure  
Sea Level Pressure 29.60 in    
Wind  
Wind Speed 21 mph (SSW)    
Max Wind Speed 32 mph    
Max Gust Speed 43 mph    
Visibility 9 miles    
Events Rain , Thunderstorm    
Averages and records for this station are not official NWS values.
T = Trace of Precipitation, MM = Missing Value Source: NWS Daily Summary

Daily Weather History Graph

Daily Weather History Graph

Search for Another Location

Airport or City:

Trip Planner

Search our weather history database for the weather conditions in past years. The results will help you decide how hot, cold, wet, or windy it might be!

Date:

Astronomy

Nov. 16, 2013 Rise Set
Actual Time 6:57 AM CST 4:59 PM CST
Civil Twilight 6:29 AM CST 5:28 PM CST
Nautical Twilight 5:57 AM CST 6:00 PM CST
Astronomical Twilight 5:25 AM CST 6:32 PM CST
Moon 4:35 PM CST (11/16) 5:55 AM CST (11/16)
Length of Visible Light 10h 58m
Length of Day
10h 01m
Waxing Gibbous, 99% of the Moon is Illuminated
Nov 16
Waxing Gibbous
Nov 17
Full
Nov 25
Last Quarter
Dec 2
New
Dec 9
First Quarter

Hourly Weather History & Observations

Time (CST) Temp. Dew Point Humidity Pressure Visibility Wind Dir Wind Speed Gust Speed Precip Events Conditions
12:58 AM 50.9 °F 46.6 °F 85% 29.80 in 10.0 mi South 13.8 mph 21.9 mph N/A   Clear
1:58 AM 51.3 °F 46.9 °F 85% 29.78 in 10.0 mi South 17.3 mph - N/A   Scattered Clouds
2:18 AM 51.8 °F 48.2 °F 88% 29.77 in 10.0 mi South 16.1 mph - N/A   Overcast
2:58 AM 52.9 °F 48.0 °F 84% 29.75 in 10.0 mi South 19.6 mph 25.3 mph N/A   Overcast
3:58 AM 54.3 °F 49.1 °F 83% 29.73 in 10.0 mi South 18.4 mph 26.5 mph N/A   Overcast
4:58 AM 57.0 °F 51.4 °F 82% 29.70 in 10.0 mi South 18.4 mph 29.9 mph N/A   Overcast
5:58 AM 58.6 °F 52.9 °F 81% 29.68 in 10.0 mi South 21.9 mph 31.1 mph N/A   Overcast
6:58 AM 59.4 °F 53.6 °F 81% 29.66 in 10.0 mi South 20.7 mph 28.8 mph N/A   Mostly Cloudy
7:58 AM 59.9 °F 54.5 °F 82% 29.65 in 10.0 mi South 24.2 mph 34.5 mph N/A   Mostly Cloudy
8:27 AM 60.8 °F 55.4 °F 82% 29.65 in 6.0 mi South 28.8 mph 39.1 mph N/A Rain Light Rain
8:46 AM 59.0 °F 55.4 °F 88% 29.67 in 7.0 mi SSW 31.1 mph 36.8 mph N/A Rain Light Rain
8:51 AM 59.0 °F 55.4 °F 88% 29.67 in 5.0 mi SSW 28.8 mph 36.8 mph N/A Rain Light Rain
8:58 AM 59.0 °F 56.3 °F 91% 29.68 in 7.0 mi SSW 26.5 mph 33.4 mph 0.02 in Rain Light Rain
9:03 AM 59.0 °F 55.4 °F 88% 29.67 in 10.0 mi South 23.0 mph 33.4 mph N/A Rain Light Rain
9:19 AM 59.0 °F 57.2 °F 94% 29.66 in 10.0 mi South 23.0 mph - N/A   Overcast
9:25 AM 59.0 °F 57.2 °F 94% 29.65 in 10.0 mi South 20.7 mph 27.6 mph N/A Rain Light Rain
9:46 AM 60.8 °F 57.2 °F 88% 29.64 in 10.0 mi South 20.7 mph 29.9 mph N/A   Overcast
9:58 AM 60.4 °F 57.4 °F 90% 29.65 in 10.0 mi South 17.3 mph 28.8 mph 0.02 in   Overcast
10:13 AM 60.8 °F 57.2 °F 88% 29.63 in 10.0 mi South 27.6 mph 33.4 mph N/A   Light Drizzle
10:23 AM 60.8 °F 57.2 °F 88% 29.64 in 10.0 mi South 31.1 mph 38.0 mph N/A   Overcast
10:52 AM 60.8 °F 57.2 °F 88% 29.62 in 6.0 mi South 28.8 mph 38.0 mph N/A Rain Light Rain
10:58 AM 60.8 °F 57.6 °F 89% 29.62 in 6.0 mi South 27.6 mph 38.0 mph 0.00 in Rain Light Rain
11:19 AM 60.8 °F 59.0 °F 94% 29.60 in 10.0 mi SSW 25.3 mph 31.1 mph N/A   Partly Cloudy
11:49 AM 62.6 °F 59.0 °F 88% 29.60 in 10.0 mi South 21.9 mph 36.8 mph N/A Rain Light Rain
11:58 AM 61.7 °F 58.1 °F 88% 29.59 in 10.0 mi South 20.7 mph 32.2 mph 0.01 in Rain Light Rain
12:56 PM 64.6 °F 59.0 °F 82% 29.52 in 10.0 mi SSW 32.2 mph 40.3 mph 0.01 in   Mostly Cloudy
1:55 PM 66.4 °F 58.8 °F 77% 29.50 in 10.0 mi SSW 26.5 mph 42.6 mph N/A   Mostly Cloudy
2:55 PM 67.3 °F 58.1 °F 72% 29.49 in 10.0 mi SSW 26.5 mph 34.5 mph N/A   Mostly Cloudy
3:55 PM 67.3 °F 57.7 °F 71% 29.48 in 10.0 mi SSW 20.7 mph 31.1 mph N/A   Partly Cloudy
4:55 PM 66.4 °F 57.7 °F 74% 29.49 in 10.0 mi SSW 20.7 mph 31.1 mph N/A   Mostly Cloudy
5:58 PM 66.0 °F 57.6 °F 74% 29.53 in 10.0 mi SSW 15.0 mph - N/A   Mostly Cloudy
6:58 PM 66.2 °F 57.0 °F 72% 29.53 in 10.0 mi SSW 18.4 mph 29.9 mph N/A   Scattered Clouds
7:58 PM 65.7 °F 56.8 °F 73% 29.52 in 10.0 mi South 21.9 mph 29.9 mph N/A   Scattered Clouds
8:18 PM 66.2 °F 57.2 °F 73% 29.52 in 10.0 mi South 23.0 mph 29.9 mph N/A   Mostly Cloudy
8:28 PM 66.2 °F 57.2 °F 73% 29.52 in 10.0 mi South 21.9 mph 28.8 mph N/A   Mostly Cloudy
8:58 PM 65.7 °F 57.2 °F 74% 29.53 in 10.0 mi SSW 23.0 mph 32.2 mph N/A   Mostly Cloudy
9:23 PM 64.4 °F 57.2 °F 77% 29.51 in 10.0 mi South 23.0 mph 34.5 mph N/A   Scattered Clouds
9:58 PM 64.4 °F 57.7 °F 79% 29.51 in 10.0 mi SSW 25.3 mph 31.1 mph N/A   Clear
10:50 PM 64.4 °F 59.0 °F 83% 29.50 in 10.0 mi SSW 24.2 mph 31.1 mph N/A Thunderstorm Mostly Cloudy
10:58 PM 64.8 °F 58.8 °F 81% 29.50 in 6.0 mi SSW 23.0 mph 32.2 mph 0.00 in Rain , Thunderstorm Light Rain Showers
10:59 PM 64.4 °F 59.0 °F 83% 29.50 in 9.0 mi SSW 21.9 mph 32.2 mph N/A   Partly Cloudy
11:10 PM 64.4 °F 59.0 °F 83% 29.50 in 9.0 mi SSW 21.9 mph 32.2 mph N/A Rain Light Rain
11:14 PM 64.4 °F 59.0 °F 83% 29.50 in 10.0 mi SSW 21.9 mph - N/A Rain Light Rain
11:58 PM 63.9 °F 59.7 °F 86% 29.49 in 10.0 mi SSW 17.3 mph - 0.01 in   Mostly Cloudy